Location: Gad�tanya
(48.0500°N, 20.8500°E)
Time: 11:28:12
(UTC+00:00)

In-Cosmos 22 Rocket - Pass Details

Date: 05 July 2020
Orbit: 791 x 887 km, 81.2° (Epoch: 14 August)

Event Time Altitude Azimuth Distance (km) Brightness Sun altitude
Exits shadow 21:29:59 20° 207° (SSW) 1,786 5.5 -17.5°
Maximum altitude 21:33:43 64° 284° (WNW) 880 4.4 -17.7°
Drops below altitude 10° 21:39:01 10° 6° (N) 2,375 7.6 -17.9°
Sets 21:41:27 0° 10° (N) 3,316 8.5 -18.0°
